Flag for U.S.A. Weather past 2 weeks in Grand Rapids, Michigan, U.S.A.

Now
71 °F

Passing clouds.


Feels Like: 70 °F
Forecast: 60 / 75 °F
Wind: 10 mph from West

Location: Kent County International Airport

Current Time: Jul 23, 2014 at 1:48:51 AM

Latest Report: Jul 23, 2014 at 12:53 AM


Visibility: 10 mi

Pressure: 29.96 "Hg

Humidity: 84%

Dew point: 66 °F

Location of Grand RapidsLocation

Historic Weather in Grand Rapids — Graph

°F

Grand Rapids temperature yesterday

Maximum temperature yesterday: 85 °F (at 12:53 PM)
Minimum temperature yesterday: 66 °F (at 6:53 AM)
Average temperature yesterday: 75 °F

Past Weeks' High & Low Weather Summary

 TemperatureHumidityPressure
High85 °F (Jul 21, 3:53 PM)97% (Jul 8, 8:53 AM)30.24 "Hg (Jul 8, 8:53 AM)
Low51 °F (Jul 17, 5:53 AM)39% (Jul 17, 6:53 PM)29.57 "Hg (Jul 8, 9:53 AM)
Average69 °F71%30.00 "Hg
* Reported Jul 8 12:53 AM — Midnight between Jul 22 and Jul 23, Grand Rapids, Weather by CustomWeather, © 2014

Note: Actual official high and low records may vary slightly from our data, if they occured in-between our weather recording intervals... More about our weather records

Advertising

Grand Rapids weather history for previous 24 hours

 ConditionsComfort  
Time TempWeatherWind HumidityBarometerVisibility
12:00 AM
Jul 23
72 °FThunderstorms. Mostly cloudy.12 mph87%29.96 "Hg10 mi
11:53 PM
Jul 22
71 °FThunderstorms. Mostly cloudy.16 mph87%29.95 "Hg10 mi
10:53 PM82 °FThunderstorms. Overcast.13 mph72%29.95 "Hg9 mi
9:53 PM83 °FCloudy.14 mph70%29.90 "Hg10 mi
8:53 PM84 °FMostly cloudy.9 mph65%29.92 "Hg10 mi
7:53 PM85 °FMostly cloudy.9 mph63%29.92 "Hg10 mi
12:53 PM85 °FScattered clouds.9 mph59%30.00 "Hg10 mi
11:53 AM83 °FPassing clouds.12 mph61%30.01 "Hg10 mi
10:53 AM81 °FPassing clouds.15 mph65%30.01 "Hg10 mi
9:53 AM78 °FPassing clouds.12 mph71%30.03 "Hg9 mi
8:53 AM74 °FPassing clouds.9 mph79%30.07 "Hg8 mi
7:53 AM69 °FFog.7 mph90%30.09 "Hg6 mi
6:53 AM66 °FFog.7 mph93%30.07 "Hg5 mi
5:53 AM67 °FClear.7 mph90%30.06 "Hg8 mi
4:53 AM67 °FClear.7 mph90%30.05 "Hg8 mi
3:53 AM67 °FClear.8 mph93%30.06 "Hg8 mi
2:53 AM68 °FClear.8 mph90%30.06 "Hg8 mi
1:53 AM69 °FClear.No wind87%30.07 "Hg9 mi
Weather by CustomWeather, © 2014

See weather overviewHow to use our weather pages